Location: Kosice
(48.7167°N, 21.2500°E)
Time: 02:43:40
(UTC+01:00)

ISS - Visible Passes

Search period start: 16 December 2017 00:00
Search period end: 26 December 2017 00:00
Orbit: 402 x 406 km, 51.6° (Epoch: 16 December)

Date Brightness Start Highest point End Pass type
(mag) Time Alt. Az. Time Alt. Az. Time Alt. Az.
16 Dec -1.1 17:05:47 10° W 17:08:21 21° SW 17:10:55 10° SSE visible
17 Dec -1.9 16:13:15 10° W 16:16:16 34° SW 16:19:16 10° SSE visible
18 Dec -0.2 16:59:10 10° WSW 16:59:58 11° SW 17:00:47 10° SSW visible
